This is the latest recevied weather packets stored in our database for station/object OK1FET-5. If no packets are shown the sender has not sent any weather packets the latest 10 day(s).
| Time | Temp. | Humidity | Pressure | Rain* | Wind** | Luminosity | Snow |
|---|---|---|---|---|---|---|---|
| 1777991337 | 26.11° C | 33% | 1005.7 hPa | - | - | - | - |
| 1777991041 | 26.11° C | 33% | 1005.7 hPa | - | - | - | - |
| 1777990746 | 26.67° C | 33% | 1005.8 hPa | - | - | - | - |
| 1777990450 | 26.67° C | 32% | 1005.8 hPa | - | - | - | - |
| 1777989858 | 27.22° C | 32% | 1005.9 hPa | - | - | - | - |
| 1777989563 | 27.78° C | 32% | 1005.9 hPa | - | - | - | - |
| 1777989266 | 27.22° C | 32% | 1005.9 hPa | - | - | - | - |
| 1777988970 | 27.78° C | 33% | 1006 hPa | - | - | - | - |
| 1777988674 | 27.78° C | 34% | 1006 hPa | - | - | - | - |
| 1777988378 | 28.89° C | 32% | 1006 hPa | - | - | - | - |
| 1777988082 | 28.89° C | 33% | 1006.1 hPa | - | - | - | - |
| 1777987786 | 29.44° C | 31% | 1006.1 hPa | - | - | - | - |
| 1777987490 | 29.44° C | 31% | 1006.1 hPa | - | - | - | - |
| 1777987194 | 29.44° C | 33% | 1006.2 hPa | - | - | - | - |
| 1777986898 | 28.89° C | 33% | 1006.2 hPa | - | - | - | - |
| 1777986602 | 28.89° C | 33% | 1006.3 hPa | - | - | - | - |
| 1777986009 | 28.89° C | 33% | 1006.4 hPa | - | - | - | - |
| 1777985713 | 28.89° C | 31% | 1006.3 hPa | - | - | - | - |
| 1777985417 | 28.89° C | 33% | 1006.3 hPa | - | - | - | - |
| 1777984528 | 28.33° C | 35% | 1006.6 hPa | - | - | - | - |
| 1777984232 | 28.33° C | 35% | 1006.7 hPa | - | - | - | - |
| 1777983936 | 28.89° C | 32% | 1006.7 hPa | - | - | - | - |
| 1777983640 | 29.44° C | 36% | 1006.8 hPa | - | - | - | - |
| 1777983343 | 30° C | 32% | 1006.8 hPa | - | - | - | - |
| 1777983047 | 30° C | 36% | 1006.9 hPa | - | - | - | - |
* Rain since midnight (hover to see other rain measurements)
** Current wind speed in m/s (hover to see current wind gust speed)